Weather History for KRHP - August, 2012

Change the Weather History Date:

Sunday, August 19, 2012

  Actual Average (KTYS) Record (KTYS)
Temperature  
Mean Temperature 68 °F 78 °F  
Max Temperature 73 °F 88 °F 98 °F (1936)
Min Temperature 64 °F 68 °F 57 °F (1943)
Degree Days  
Heating Degree Days 0 0  
Month to date heating degree days 0  
Since 1 June heating degree days 4  
Since 1 July heating degree days 0  
Cooling Degree Days 4 13  
Month to date cooling degree days 247  
Year to date cooling degree days 1131  
Since 1 June cooling degree days 969  
Growing Degree Days 18 (Base 50)    
Moisture  
Dew Point 65 °F    
Average Humidity 91    
Maximum Humidity 100    
Minimum Humidity 73    
Precipitation  
Precipitation 0.59 in 0.11 in 0.91 in (2009)
Month to date precipitation 2.17  
Year to date precipitation 32.50  
Snow  
Snow 0.00 in 0.00 in - ()
Month to date snowfall 0.0  
Since 1 June snowfall 0.0  
Since 1 July snowfall 0.0  
Snow Depth -    
Sea Level Pressure  
Sea Level Pressure 29.94 in    
Wind  
Wind Speed 0 mph (West)    
Max Wind Speed 6 mph    
Max Gust Speed -    
Visibility 8 miles    
Events      
T = Trace of Precipitation, MM = Missing Value Source: NWS Daily Summary

Daily Weather History Graph

Daily Weather History Graph

Search for Another Location

Airport or City:

Trip Planner

Search our weather history database for the weather conditions in past years. The results will help you decide how hot, cold, wet, or windy it might be!

Date:

Astronomy

Aug. 19, 2012 Rise Set
Actual Time 6:58 AM EDT 8:18 PM EDT
Civil Twilight 6:31 AM EDT 8:45 PM EDT
Nautical Twilight 6:00 AM EDT 9:16 PM EDT
Astronomical Twilight 5:26 AM EDT 9:49 PM EDT
Moon 9:04 AM EDT (8/19) 9:16 PM EDT (8/19)
Length of Visible Light 14h 13m
Length of Day
13h 20m
Waxing Crescent, 5% of the Moon is Illuminated
Aug 19
Waxing Crescent
Aug 24
First Quarter
Aug 31
Full
Sep 8
Last Quarter
Sep 15
New

Hourly Weather History & Observations

Time (EDT) Temp. Dew Point Humidity Pressure Visibility Wind Dir Wind Speed Gust Speed Precip Events Conditions
12:15 AM 64.4 °F 64.4 °F 100% 29.96 in 7.0 mi Calm Calm - N/A   Scattered Clouds
12:55 AM 64.4 °F 64.4 °F 100% 29.96 in 7.0 mi Calm Calm - N/A   Mostly Cloudy
1:15 AM 64.4 °F 64.4 °F 100% 29.96 in 7.0 mi Calm Calm - N/A   Scattered Clouds
1:35 AM 64.4 °F 64.4 °F 100% 29.95 in 7.0 mi Calm Calm - N/A   Clear
1:55 AM 64.4 °F 64.4 °F 100% 29.95 in 10.0 mi Calm Calm - N/A   Clear
2:15 AM 64.4 °F 64.4 °F 100% 29.95 in 10.0 mi Calm Calm - N/A   Scattered Clouds
2:35 AM 64.4 °F 64.4 °F 100% 29.94 in 7.0 mi Calm Calm - N/A   Mostly Cloudy
2:55 AM 64.4 °F 64.4 °F 100% 29.94 in 5.0 mi Calm Calm - N/A   Overcast
3:15 AM 64.4 °F 64.4 °F 100% 29.95 in 4.0 mi Calm Calm - 0.03 in   Overcast
3:35 AM 64.4 °F 64.4 °F 100% 29.95 in 2.5 mi Calm Calm - 0.11 in   Overcast
3:55 AM 64.4 °F 64.4 °F 100% 29.95 in 1.8 mi Calm Calm - 0.22 in   Overcast
4:15 AM 64.4 °F 64.4 °F 100% 29.95 in 2.5 mi Calm Calm - 0.14 in   Overcast
4:35 AM 64.4 °F 64.4 °F 100% 29.95 in 2.5 mi Calm Calm - 0.22 in   Overcast
4:55 AM 64.4 °F 64.4 °F 100% 29.94 in 3.0 mi Calm Calm - 0.26 in   Overcast
5:15 AM 64.4 °F 64.4 °F 100% 29.93 in 4.0 mi Calm Calm - 0.01 in   Overcast
5:35 AM 64.4 °F 64.4 °F 100% 29.93 in 5.0 mi Calm Calm - 0.03 in   Overcast
5:55 AM 64.4 °F 64.4 °F 100% 29.93 in 5.0 mi Calm Calm - 0.05 in   Overcast
6:15 AM 64.4 °F 64.4 °F 100% 29.93 in 5.0 mi Calm Calm - 0.01 in   Overcast
6:35 AM 64.4 °F 64.4 °F 100% 29.93 in 4.0 mi Calm Calm - 0.02 in   Overcast
6:55 AM 64.4 °F 64.4 °F 100% 29.93 in 4.0 mi Calm Calm - 0.02 in   Overcast
7:15 AM 64.4 °F 64.4 °F 100% 29.94 in 3.0 mi Calm Calm - N/A   Overcast
7:35 AM 64.4 °F 64.4 °F 100% 29.94 in 3.0 mi Calm Calm - 0.01 in   Overcast
7:55 AM 64.4 °F 64.4 °F 100% 29.94 in 4.0 mi Calm Calm - 0.01 in   Overcast
8:15 AM 64.4 °F 64.4 °F 100% 29.95 in 7.0 mi Calm Calm - N/A   Overcast
8:35 AM 66.2 °F 66.2 °F 100% 29.95 in 10.0 mi Calm Calm - N/A   Overcast
8:55 AM 66.2 °F 66.2 °F 100% 29.95 in 10.0 mi Calm Calm - N/A   Overcast
9:35 AM 68.0 °F 66.2 °F 94% 29.96 in 10.0 mi Calm Calm - N/A   Overcast
9:55 AM 68.0 °F 64.4 °F 88% 29.96 in 10.0 mi Calm Calm - N/A   Overcast
10:15 AM 68.0 °F 64.4 °F 88% 29.96 in 10.0 mi Calm Calm - N/A   Mostly Cloudy
10:35 AM 68.0 °F 66.2 °F 94% 29.95 in 10.0 mi Calm Calm - N/A   Scattered Clouds
10:55 AM 68.0 °F 64.4 °F 88% 29.95 in 10.0 mi Calm Calm - N/A   Scattered Clouds
11:15 AM 69.8 °F 66.2 °F 88% 29.95 in 10.0 mi Calm Calm - N/A   Mostly Cloudy
11:35 AM 69.8 °F 66.2 °F 88% 29.95 in 10.0 mi Calm Calm - N/A   Overcast
11:55 AM 71.6 °F 64.4 °F 78% 29.95 in 10.0 mi Calm Calm - N/A   Overcast
12:15 PM 71.6 °F 64.4 °F 78% 29.95 in 10.0 mi Calm Calm - N/A   Mostly Cloudy
12:35 PM 73.4 °F 64.4 °F 73% 29.94 in 10.0 mi Calm Calm - N/A   Mostly Cloudy
12:55 PM 73.4 °F 64.4 °F 73% 29.94 in 10.0 mi Calm Calm - N/A   Mostly Cloudy
1:15 PM 73.4 °F 64.4 °F 73% 29.94 in 10.0 mi Calm Calm - N/A   Mostly Cloudy
1:35 PM 71.6 °F 66.2 °F 83% 29.95 in 10.0 mi Calm Calm - N/A   Overcast
1:55 PM 69.8 °F 68.0 °F 94% 29.95 in 7.0 mi NW 4.6 mph - 0.02 in   Overcast
2:15 PM 69.8 °F 68.0 °F 94% 29.94 in 10.0 mi WSW 3.5 mph - N/A   Overcast
2:35 PM 69.8 °F 68.0 °F 94% 29.94 in 10.0 mi Calm Calm - 0.01 in   Overcast
2:55 PM 71.6 °F 66.2 °F 83% 29.93 in 10.0 mi Calm Calm - 0.01 in   Overcast
3:15 PM 71.6 °F 68.0 °F 88% 29.92 in 10.0 mi Calm Calm - N/A   Overcast
3:35 PM 71.6 °F 66.2 °F 83% 29.92 in 10.0 mi West 3.5 mph - N/A   Mostly Cloudy
3:55 PM 73.4 °F 66.2 °F 78% 29.92 in 10.0 mi West 4.6 mph - N/A   Scattered Clouds
4:15 PM 73.4 °F 66.2 °F 78% 29.91 in 10.0 mi WNW 3.5 mph - N/A   Scattered Clouds
4:35 PM 73.4 °F 64.4 °F 73% 29.91 in 10.0 mi SW 4.6 mph - N/A   Clear
4:55 PM 73.4 °F 64.4 °F 73% 29.91 in 10.0 mi SW 3.5 mph - N/A   Clear
5:15 PM 73.4 °F 64.4 °F 73% 29.91 in 10.0 mi West 4.6 mph - N/A   Scattered Clouds
5:35 PM 73.4 °F 64.4 °F 73% 29.91 in 10.0 mi West 3.5 mph - N/A   Mostly Cloudy
5:55 PM 73.4 °F 64.4 °F 73% 29.90 in 10.0 mi WSW 5.8 mph - N/A   Mostly Cloudy
6:15 PM 73.4 °F 64.4 °F 73% 29.91 in 10.0 mi Calm Calm - N/A   Overcast
6:35 PM 73.4 °F 64.4 °F 73% 29.90 in 10.0 mi WSW 3.5 mph - N/A   Scattered Clouds
6:55 PM 71.6 °F 64.4 °F 78% 29.90 in 10.0 mi West 3.5 mph - N/A   Clear
7:15 PM 71.6 °F 66.2 °F 83% 29.91 in 10.0 mi West 3.5 mph - N/A   Clear
7:35 PM 71.6 °F 66.2 °F 83% 29.91 in 10.0 mi Calm Calm - N/A   Scattered Clouds
7:55 PM 69.8 °F 68.0 °F 94% 29.91 in 10.0 mi Calm Calm - N/A   Scattered Clouds
8:15 PM 69.8 °F 68.0 °F 94% 29.91 in 10.0 mi Calm Calm - N/A   Mostly Cloudy
8:35 PM 68.0 °F 68.0 °F 100% 29.91 in 10.0 mi Calm Calm - N/A   Scattered Clouds
8:55 PM 68.0 °F 66.2 °F 94% 29.92 in 10.0 mi Calm Calm - N/A   Clear
9:15 PM 68.0 °F 66.2 °F 94% 29.93 in 7.0 mi Calm Calm - N/A   Scattered Clouds
9:35 PM 68.0 °F 66.2 °F 94% 29.94 in 7.0 mi Calm Calm - N/A   Scattered Clouds
9:55 PM 66.2 °F 66.2 °F 100% 29.94 in 7.0 mi Calm Calm - N/A   Clear
10:15 PM 66.2 °F 66.2 °F 100% 29.95 in 10.0 mi Calm Calm - N/A   Scattered Clouds
10:35 PM 66.2 °F 66.2 °F 100% 29.95 in 5.0 mi Calm Calm - N/A   Scattered Clouds
10:55 PM 66.2 °F 64.4 °F 94% 29.95 in 7.0 mi Calm Calm - N/A   Scattered Clouds
11:15 PM 64.4 °F 64.4 °F 100% 29.95 in 4.0 mi Calm Calm - N/A   Clear
11:35 PM 64.4 °F 64.4 °F 100% 29.95 in 4.0 mi Calm Calm - N/A   Scattered Clouds
11:55 PM 64.4 °F 64.4 °F 100% 29.95 in 5.0 mi Calm Calm - N/A   Scattered Clouds